Regional Weather Roundup
Issued by NWS

Current Version | Previous Version | Text Only | Print | Product List | Glossary On
Versions: 1 2 3 4 5 6 7 8 9 10 11 12 13 14 15 16 17 18 19 20 21 22 23 24 25 26 27
000
ASUS44 KLIX 230413
RWRLA
LOUISIANA WEATHER ROUNDUP
NATIONAL WEATHER SERVICE NEW ORLEANS LA
1100 PM CDT SUN OCT 22 2017

NOTE: "FAIR" INDICATES FEW OR NO CLOUDS BELOW 12,000 FEET WITH NO
      SIGNIFICANT WEATHER AND/OR OBSTRUCTIONS TO VISIBILITY.
      SKY/WX - SKY CONDITION AND SIGNIFICANT WEATHER.
      TMP - AIR TEMPERATURE.    DP   - DEWPOINT TEMPERATURE.
      RH  - RELATIVE HUMIDITY.  PRES - PRESSURE.
      HX  - HEAT INDEX.         WCI  - WIND CHILL INDEX.

*  THESE STATIONS ARE NOT NWS OR FAA STATIONS AND ARE NOT UNDER
   NWS QUALITY CONTROL.

LAZ040-048-061>063-065-066-069-230500-
SOUTHEAST LOUISIANA

CITY           SKY/WX    TMP DP  RH WIND       PRES   REMARKS
N.O. INTL ARPT PTCLDY    67  63  87 NW10      30.05R
N.O. LAKEFRONT CLEAR    N/A N/A N/A MISG      30.04R
N.O. DOWNTOWN* FAIR      69  61  75 VRB6      30.05R
RESERVE*       FAIR      65  61  87 NW3       30.06R
SLIDELL        CLEAR     64  61  90 CALM      30.03R
BATON ROUGE    CLEAR     61  59  93 CALM      30.06R
BOOTHVILLE     CLEAR     74  69  85 W7        30.01R
BELLE CHASSE   NOT AVBL
BOGALUSA*      FAIR      63  60  88 CALM      30.05R
GALLIANO*      CLEAR     65  58  77 NW9       30.05R
NEW ROADS*     FAIR      60  59  96 W5        30.07S
GONZALES*      FAIR      63  60  91 NW6       30.05S
HAMMOND*       CLEAR     61  59  94 CALM      30.05R
HOUMA*         CLEAR    N/A N/A N/A NW7       30.06R
PORT FOURCHON* CLEAR     72  61  68 NW17      30.04S

$$

LAZ041-044-053-054-230500-
SOUTHWEST LOUISIANA

CITY           SKY/WX    TMP DP  RH WIND       PRES   REMARKS
LAKE CHARLES   CLEAR     58  57  97 CALM      30.09S
LAFAYETTE      CLEAR     60  59  96 NW3       30.08R
PATTERSON      CLEAR     62  60  93 W5        30.08R
SALT POINT       N/A     65  60  84 N7        30.07R
NEW IBERIA     CLEAR     60  57  89 NW5       30.08R
CHENAULT AIRPK   N/A     58  57  97 NW3       30.10S

$$

LAZ027-028-230500-
CENTRAL LOUISIANA

CITY           SKY/WX    TMP DP  RH WIND       PRES   REMARKS
FORT POLK      CLEAR     58  57  94 NW8       30.09S
ALEXANDRIA INT PTCLDY    56  56 100 W5        30.06S
ALEXANDRIA     CLEAR     56  56 100 CALM      30.07S

$$

LAZ001-002-230500-
NORTHWEST LOUISIANA

CITY           SKY/WX    TMP DP  RH WIND       PRES   REMARKS
SHREVEPORT     CLEAR     59  51  75 N6        30.11S
BARKSDALE AFB  CLEAR     56  49  79 N6        30.11R
DTN SHREVEPORT CLEAR     58  51  78 N6        30.11S

$$

LAZ014-016-230500-
NORTHEAST LOUISIANA

CITY           SKY/WX    TMP DP  RH WIND       PRES   REMARKS
MONROE         CLEAR     60  58  92 NW9       30.07S
TALLULAH       CLEAR     57  57 100 NW3       30.05S

$$





USA.gov is the U.S. government's official web portal to all federal, state and local government web resources and services.